Tracking 31027 objects as of 19-Jul-2025
HD Live streaming from Space Station
objects crossing your sky now

STARLINK-5463

Track STARLINK-5463 now!
10-day predictions
STARLINK-5463 is classified as:


NORAD ID: 55673
Int'l Code: 2023-021AX
Perigee: 577.2 km
Apogee: 581.2 km
Inclination: 70.0 °
Period: 96.1 minutes
Semi major axis: 6950 km
RCS: Unknown
Launch date: February 17, 2023
Source: United States (US)
Launch site: AIR FORCE WESTERN TEST RANGE (AFWTR)
Your satellite tracking list
FENGYUN 1C DEB
Track 1 satellite(s)




NASA's NSSDC Master Catalog

Two Line Element Set (TLE):
1 55673U 23021AX  25199.87522199  .00000081  00000-0  14605-4 0  9992
2 55673  69.9997  33.8929 0002873 270.4208  89.6622 14.98328701133962
Source of the keplerian elements: AFSPC